Flag for Norway Weather past 2 weeks in Kongsvinger, Norway

Now
72 °F

Passing clouds.


Feels Like: 77 °F
Forecast: 58 / 65 °F
Wind: 6 mph from South

Location: Oslo Gardermoen Airport

Current Time: Jul 5, 2015 at 11:57:05 AM

Latest Report: Jul 5, 2015 at 11:20 AM


Visibility: N/A

Pressure: 30.04 "Hg

Humidity: 47%

Dew point: 50 °F

Location of KongsvingerLocation

Historic Weather in Kongsvinger — Graph

°F

Kongsvinger temperature yesterday

Maximum temperature yesterday: 79 °F (at 3:20 PM)
Minimum temperature yesterday: 57 °F (at 5:20 AM)
Average temperature yesterday: 68 °F

Past Weeks' High & Low Weather Summary

 TemperatureHumidityPressure
High79 °F (Jul 1, 3:20 PM)100% (Jun 22, 1:20 AM)30.33 "Hg (Jun 22, 1:20 AM)
Low46 °F (Jun 22, 2:50 AM)29% (Jun 20, 4:50 PM)29.65 "Hg (Jun 23, 2:20 PM)
Average61 °F66%29.96 "Hg
* Reported Jun 20 10:20 AM — Jul 5 10:20 AM, Kongsvinger, Weather by CustomWeather, © 2015

Note: Actual official high and low records may vary slightly from our data, if they occured in-between our weather recording intervals... More about our weather records

Advertising

Kongsvinger weather history for previous 24 hours

 ConditionsComfort  
Time TempWeatherWind HumidityBarometerVisibility
10:20 AM
Sun, Jul 5
70 °FPassing clouds.5 mph53%30.04 "HgN/A
9:50 AM68 °FSunny.2 mph60%30.04 "Hg10 mi
9:20 AM66 °FSunny.No wind64%30.07 "Hg10 mi
8:50 AM64 °FSunny.2 mph73%30.07 "Hg10 mi
8:20 AM63 °FSunny.1 mph77%30.07 "Hg10 mi
7:50 AM61 °FPassing clouds.3 mph83%30.07 "HgN/A
7:20 AM59 °FSunny.1 mph82%30.07 "Hg10 mi
6:50 AM59 °FSunny.2 mph82%30.07 "Hg10 mi
6:20 AM59 °FSunny.2 mph82%30.07 "Hg10 mi
5:50 AM59 °FSunny.No wind82%30.07 "Hg10 mi
5:20 AM57 °FSunny.No wind82%30.04 "Hg10 mi
4:50 AM59 °FClear.No wind77%30.07 "Hg10 mi
4:20 AM59 °FClear.2 mph77%30.07 "Hg10 mi
3:50 AM59 °FClear.No wind77%30.07 "Hg10 mi
3:20 AM59 °FClear.2 mph77%30.07 "Hg10 mi
2:50 AM61 °FClear.2 mph72%30.07 "Hg10 mi
2:20 AM61 °FClear.5 mph68%30.07 "Hg10 mi
1:50 AM61 °FClear.3 mph68%30.07 "Hg10 mi
1:20 AM63 °FClear.5 mph64%30.07 "Hg10 mi
12:50 AM63 °FClear.No wind68%30.07 "Hg10 mi
12:20 AM61 °FClear.6 mph72%30.07 "Hg10 mi
11:50 PM
Sat, Jul 4
63 °FClear.2 mph68%30.07 "Hg10 mi
11:20 PM63 °FSunny.8 mph68%30.07 "Hg10 mi
10:50 PM64 °FSunny.10 mph64%30.07 "Hg10 mi
10:20 PM66 °FSunny.8 mph60%30.07 "Hg10 mi
9:50 PM68 °FSunny.7 mph56%30.07 "Hg10 mi
9:20 PM70 °FPassing clouds.6 mph50%30.07 "HgN/A
8:50 PM72 °FSunny.9 mph50%30.07 "Hg10 mi
8:20 PM72 °FPassing clouds.7 mph50%30.07 "HgN/A
7:50 PM73 °FPassing clouds.8 mph50%30.07 "HgN/A
7:20 PM73 °FPassing clouds.9 mph47%30.07 "HgN/A
6:50 PM75 °FSunny.13 mph47%30.07 "Hg10 mi
6:20 PM77 °FSunny.14 mph51%30.07 "Hg10 mi
5:50 PM77 °FPassing clouds.13 mph54%30.07 "HgN/A
5:20 PM79 °FScattered clouds.10 mph51%30.09 "HgN/A
4:50 PM79 °FPassing clouds.10 mph48%30.09 "HgN/A
4:20 PM79 °FScattered clouds.7 mph48%30.09 "HgN/A
3:50 PM79 °FScattered clouds.7 mph51%30.09 "HgN/A
3:20 PM79 °FScattered clouds.3 mph51%30.09 "HgN/A
2:50 PM77 °FScattered clouds.5 mph54%30.12 "HgN/A
2:20 PM77 °FScattered clouds.3 mph51%30.12 "HgN/A
1:50 PM77 °FScattered clouds.3 mph51%30.12 "HgN/A
1:20 PM75 °FScattered clouds.5 mph54%30.12 "HgN/A
12:50 PM73 °FBroken clouds.2 mph57%30.15 "HgN/A
12:20 PM75 °FBroken clouds.2 mph61%30.15 "HgN/A
11:50 AM73 °FBroken clouds.3 mph57%30.15 "HgN/A
11:20 AM72 °FPartly sunny.5 mph61%30.18 "HgN/A
Weather by CustomWeather, © 2015

See weather overviewHow to use our weather pages